Back to catalog

COSMOS 2251 DEB

AliveLEO
NORAD 46432·DEBRIS·🇷🇺 Russia

Launched Jun 16, 1993 from Plesetsk Cosmodrome

Loading…

Next Passes (next 24 hours)

TLE

StaleSource: Space-Track

Epoch: Sep 6, 2026, 05:00 UTC

1 46432U 93036BWW 26249.20867679  .00000404  00000-0  42676-3 0  9994
2 46432  73.8703  49.6951 0472918 121.6751  50.8755 13.36963076705407

Track COSMOS 2251 DEB in real time with AllMySat

Download on the App Store